Cloud_Cover
100 100 100 100 100 100 100 100 100 100 40 17 19 28 100 21 5 0 0 0 2 5 5 5 0 0 0 0 0 0 0 0
100 100 100 100 100 100 100 100 100 100 56 63 62 84 100 99 4 0 0 0 8 5 5 53 4 0 0 0 0 0 0 0
100 91 93 100 100 100 100 100 100 100 94 100 91 100 100 100 3 0 0 0 2 4 5 97 5 1 0 0 0 0 0 0
100 99 100 100 100 96 100 100 100 83 100 82 100 100 100 100 5 5 0 1 22 23 3 10 5 4 0 0 0 0 0 0
100 97 100 100 100 52 48 77 39 83 94 97 100 100 100 19 5 5 5 8 38 100 100 7 32 5 5 0 0 0 3 0
100 100 100 100 100 61 15 45 100 100 100 100 100 100 56 5 5 5 5 40 6 93 100 98 19 5 5 5 5 0 0 5
76 100 100 92 100 100 78 74 35 100 100 100 100 100 38 6 12 43 91 96 8 93 100 100 86 24 3 5 5 4 3 5
18 55 100 100 90 16 38 31 62 100 100 100 100 100 94 100 100 100 100 86 15 97 100 100 68 37 5 5 16 13 5 28
6 44 58 100 86 89 90 96 63 87 100 100 100 100 100 100 100 100 100 100 100 100 100 100 91 62 24 5 5 5 53 91
76 53 87 68 100 62 86 100 37 82 98 100 100 80 89 100 100 100 100 100 100 100 100 100 100 100 19 4 5 34 100 77
100 48 38 27 58 99 38 40 100 86 75 75 66 89 88 100 100 100 100 100 100 100 100 100 100 100 9 8 6 5 5 5
100 59 26 22 18 50 69 69 92 97 100 91 73 93 97 99 99 100 100 60 66 96 93 100 60 92 31 30 22 34 9 17
100 34 70 75 61 52 96 97 52 81 100 100 100 100 100 100 100 100 100 95 77 48 92 11 73 97 53 86 65 17 52 84
100 78 62 67 100 97 42 54 28 76 100 100 100 100 100 100 100 91 66 58 87 83 64 5 48 84 100 90 47 67 83 100
100 98 76 98 100 86 71 81 100 100 100 100 100 100 100 100 100 100 100 100 100 100 87 54 79 95 70 46 97 100 100 82
100 100 100 100 64 100 74 100 100 100 100 100 100 100 98 100 100 100 100 100 100 100 100 91 96 69 99 92 69 93 94 93
100 100 100 9 36 68 11 79 100 100 100 100 100 100 100 100 100 100 100 100 100 100 100 100 100 45 6 6 98 97 100 52
100 100 100 100 100 100 100 100 100 100 100 100 100 100 100 100 100 100 100 100 100 100 100 100 100 100 100 7 10 57 36 49
14 8 5 2 16 49 74 61 67 100 100 100 100 100 100 100 100 100 100 100 100 100 100 100 100 100 98 56 49 68 34 100
95 100 100 100 100 100 100 100 97 100 100 100 100 100 100 100 100 100 100 100 100 100 100 100 100 100 100 100 96 81 89 75